Weather History for Rifle, CO

Change the Weather History Date:

Sunday, May 11, 2014

  Actual Average Record
Temperature  
Mean Temperature 41 °F 55 °F  
Max Temperature 50 °F 71 °F 87 °F (2007)
Min Temperature 32 °F 39 °F 22 °F (1953)
Degree Days  
Heating Degree Days 24 10  
Month to date heating degree days 141 126  
Since 1 July heating degree days 6614 6423  
Cooling Degree Days 0 0  
Month to date cooling degree days 0 0  
Year to date cooling degree days 0 0  
Moisture  
Dew Point 35 °F    
Average Humidity 84    
Maximum Humidity 96    
Minimum Humidity 71    
Precipitation  
Precipitation 0.93 in 0.05 in 0.93 in (2014)
Month to date precipitation 1.08 0.55  
Year to date precipitation 3.91 4.46  
Sea Level Pressure  
Sea Level Pressure 29.72 in    
Wind  
Wind Speed 7 mph (WNW)    
Max Wind Speed 22 mph    
Max Gust Speed 29 mph    
Visibility 7 miles    
Events Rain , Snow , Thunderstorm    
T = Trace of Precipitation, MM = Missing Value Source: NWS Daily Summary

Daily Weather History Graph

Daily Weather History Graph

Search for Another Location

Airport:

Trip Planner

Search our weather history database for the weather conditions in past years. The results will help you decide how hot, cold, wet, or windy it might be!

Date:

Astronomy

May. 11, 2014 Rise Set
Actual Time 6:00 AM MDT 8:14 PM MDT
Civil Twilight 5:30 AM MDT 8:44 PM MDT
Nautical Twilight 4:53 AM MDT 9:21 PM MDT
Astronomical Twilight 4:13 AM MDT 10:02 PM MDT
Moon 5:14 PM MDT (5/11) 4:06 AM MDT (5/11)
Length of Visible Light 15h 13m
Length of Day
14h 13m
Waxing Gibbous, 89% of the Moon is Illuminated
May 11
Waxing Gibbous
May 14
Full
May 21
Last Quarter
May 28
New
Jun 5
First Quarter

Hourly Weather History & Observations

Time (MDT) Temp. Windchill Dew Point Humidity Pressure Visibility Wind Dir Wind Speed Gust Speed Precip Events Conditions
12:10 AM 41.0 °F 32.5 °F 35.1 °F 79% 29.72 in 9.0 mi WNW 17.3 mph 32.2 mph 0.02 in Rain Rain
12:17 AM 41.0 °F 32.2 °F 35.1 °F 79% 29.72 in 9.0 mi WNW 18.4 mph 25.3 mph 0.02 in Rain Light Rain
12:53 AM 41.0 °F 31.6 °F 35.1 °F 79% 29.64 in 10.0 mi WNW 20.7 mph 27.6 mph 0.04 in Rain Light Rain
1:06 AM 39.9 °F 30.5 °F 35.1 °F 83% 29.73 in 9.0 mi WNW 19.6 mph 26.5 mph 0.03 in Rain Light Rain
1:28 AM 39.0 °F 29.0 °F 35.1 °F 86% 29.72 in 6.0 mi WNW 20.7 mph 26.5 mph 0.06 in Rain Rain
1:53 AM 37.9 °F 31.5 °F 35.1 °F 89% 29.66 in 5.0 mi West 9.2 mph 21.9 mph 0.10 in Rain Rain
2:35 AM 37.0 °F 27.4 °F 35.1 °F 93% 29.75 in 10.0 mi WSW 17.3 mph - 0.05 in Rain Light Rain
2:53 AM 36.0 °F 30.3 °F 34.0 °F 93% 29.65 in 5.0 mi West 6.9 mph 18.4 mph 0.08 in Rain Rain
3:11 AM 36.0 °F 32.1 °F 34.0 °F 93% 29.71 in 10.0 mi North 4.6 mph - 0.01 in Rain Light Rain
3:20 AM 35.1 °F - 34.0 °F 96% 29.71 in 10.0 mi Calm Calm - 0.01 in   Overcast
3:53 AM 36.0 °F 30.3 °F 34.0 °F 93% 29.64 in 8.0 mi SSE 6.9 mph - 0.03 in Rain Light Rain
4:02 AM 35.1 °F 27.9 °F 33.1 °F 92% 29.69 in 5.0 mi SE 9.2 mph - 0.03 in Rain Rain
4:05 AM 34.0 °F 27.2 °F 33.1 °F 96% 29.69 in 2.5 mi ESE 8.1 mph - 0.05 in Snow Light Snow
4:14 AM 33.1 °F 27.7 °F 32.0 °F 96% 29.69 in 1.2 mi SE 5.8 mph - 0.09 in Snow Light Snow
4:23 AM 33.1 °F 30.0 °F 32.0 °F 96% 29.69 in 3.0 mi SE 3.5 mph - 0.10 in Snow Light Snow
4:39 AM 33.1 °F 30.0 °F 32.0 °F 96% 29.67 in 6.0 mi North 3.5 mph - 0.10 in   Overcast
4:44 AM 33.1 °F 30.0 °F 32.0 °F 96% 29.67 in 1.8 mi NNE 3.5 mph - 0.10 in   Overcast
4:51 AM 33.8 °F - 32.0 °F 93% 29.66 in 0.8 mi Calm Calm - 0.10 in   Overcast
4:53 AM 33.1 °F - 32.0 °F 96% 29.60 in 0.8 mi Calm Calm - 0.10 in   Overcast
5:01 AM 33.1 °F - 32.0 °F 96% 29.66 in 1.2 mi Calm Calm - N/A   Overcast
5:08 AM 33.1 °F 30.0 °F 32.0 °F 96% 29.66 in 3.0 mi East 3.5 mph - N/A   Overcast
5:14 AM 33.1 °F - 32.0 °F 96% 29.66 in 10.0 mi Calm Calm - N/A   Overcast
5:53 AM 34.0 °F 28.8 °F 33.1 °F 96% 29.59 in 10.0 mi West 5.8 mph - 0.00 in Rain Light Rain
6:53 AM 36.0 °F 32.1 °F 34.0 °F 93% 29.58 in 10.0 mi SE 4.6 mph - 0.01 in Rain Light Rain
7:02 AM 36.0 °F 29.6 °F 34.0 °F 93% 29.64 in 10.0 mi SE 8.1 mph - 0.00 in   Overcast
7:53 AM 37.9 °F 35.5 °F 35.1 °F 89% 29.55 in 10.0 mi ESE 3.5 mph - 0.00 in   Scattered Clouds
8:13 AM 39.0 °F 34.8 °F 36.0 °F 89% 29.62 in 10.0 mi North 5.8 mph - N/A   Mostly Cloudy
8:53 AM 39.9 °F 32.9 °F 37.0 °F 89% 29.57 in 8.0 mi NW 11.5 mph - 0.00 in Rain Light Rain
9:00 AM 39.9 °F - 37.9 °F 93% 29.64 in 2.0 mi North - - 0.02 in Rain Rain
9:11 AM 41.0 °F 34.3 °F 37.9 °F 89% 29.64 in 10.0 mi WNW 11.5 mph - 0.02 in   Overcast
9:19 AM 42.1 °F 39.2 °F 37.9 °F 85% 29.63 in 10.0 mi NNW 4.6 mph - 0.02 in   Mostly Cloudy
9:30 AM 43.0 °F 41.3 °F 37.9 °F 82% 29.63 in 10.0 mi NNE 3.5 mph - 0.02 in   Mostly Cloudy
9:45 AM 44.1 °F 41.5 °F 41.0 °F 89% 29.63 in 10.0 mi Variable 4.6 mph - 0.02 in   Mostly Cloudy
9:53 AM 43.0 °F 40.3 °F 39.0 °F 86% 29.56 in 10.0 mi SW 4.6 mph - 0.02 in   Overcast
10:05 AM 44.1 °F 40.8 °F 39.9 °F 85% 29.63 in 10.0 mi South 5.8 mph - N/A   Mostly Cloudy
10:53 AM 46.0 °F - 39.0 °F 76% 29.56 in 10.0 mi Calm Calm - N/A   Scattered Clouds
11:53 AM 48.0 °F - 39.9 °F 74% 29.56 in 10.0 mi NW 4.6 mph - N/A   Mostly Cloudy
12:53 PM 48.9 °F - 39.0 °F 69% 29.57 in 10.0 mi WSW 11.5 mph - 0.01 in Rain Light Rain
1:53 PM 46.9 °F - 39.9 °F 77% 29.61 in 10.0 mi West 23.0 mph 27.6 mph 0.00 in Rain Light Rain
2:04 PM 45.0 °F 36.9 °F 39.0 °F 80% 29.67 in 10.0 mi WNW 20.7 mph - 0.00 in   Overcast
2:11 PM 45.0 °F 37.4 °F 39.0 °F 80% 29.67 in 10.0 mi WNW 18.4 mph - 0.00 in   Overcast
2:22 PM 44.1 °F 37.1 °F 39.0 °F 82% 29.68 in 9.0 mi West 15.0 mph - 0.01 in Rain Light Rain
2:32 PM 44.1 °F 38.6 °F 39.9 °F 85% 29.70 in 4.0 mi WNW 10.4 mph - 0.02 in Rain Rain
2:44 PM 41.0 °F 36.4 °F 37.0 °F 86% 29.73 in 3.0 mi WNW 6.9 mph - 0.08 in Rain Heavy Rain
2:51 PM 39.2 °F 32.5 °F 35.6 °F 87% 29.72 in 1.8 mi NNW 10.4 mph - 0.13 in Rain , Thunderstorm Heavy Rain
2:53 PM 39.9 °F 31.8 °F 36.0 °F 86% 29.68 in 1.5 mi North 15.0 mph 21.9 mph 0.15 in Rain , Thunderstorm Heavy Rain
3:06 PM 39.0 °F 31.0 °F 36.0 °F 89% 29.71 in 3.0 mi North 13.8 mph 23.0 mph 0.03 in Rain , Thunderstorm Light Rain
3:15 PM 39.9 °F 34.5 °F 36.0 °F 86% 29.73 in 10.0 mi WNW 8.1 mph 23.0 mph 0.03 in Rain Light Rain
3:53 PM 42.1 °F 40.2 °F 36.0 °F 79% 29.73 in 10.0 mi North 3.5 mph - 0.03 in   Overcast
4:10 PM 42.1 °F 36.6 °F 37.0 °F 82% 29.75 in 10.0 mi North 9.2 mph - 0.00 in Rain Light Rain
4:36 PM 41.0 °F 34.3 °F 36.0 °F 82% 29.77 in 10.0 mi West 11.5 mph - 0.02 in Rain Light Rain
4:53 PM 39.9 °F 33.9 °F 37.0 °F 89% 29.77 in 6.0 mi WNW 9.2 mph - 0.04 in Rain Light Rain
5:45 PM 41.0 °F 35.8 °F 35.1 °F 79% 29.79 in 10.0 mi NW 8.1 mph - 0.04 in Rain Light Rain
5:53 PM 41.0 °F 34.7 °F 36.0 °F 82% 29.78 in 10.0 mi West 10.4 mph - 0.04 in Rain Light Rain
6:22 PM 39.9 °F 35.1 °F 35.1 °F 83% 29.80 in 10.0 mi West 6.9 mph - 0.00 in Rain Light Rain
6:41 PM 39.9 °F - 35.1 °F 83% 29.81 in 10.0 mi Calm Calm - 0.00 in Rain Light Rain
6:53 PM 39.9 °F - 35.1 °F 83% 29.81 in 10.0 mi Calm Calm - 0.00 in Rain Light Rain
7:13 PM 39.9 °F 34.5 °F 35.1 °F 83% 29.83 in 9.0 mi West 8.1 mph - 0.01 in Rain Light Rain
7:53 PM 37.9 °F 32.1 °F 34.0 °F 86% 29.84 in 9.0 mi WSW 8.1 mph - 0.04 in Rain Light Rain
8:23 PM 37.9 °F 33.5 °F 34.0 °F 86% 29.86 in 5.0 mi WSW 5.8 mph - 0.02 in Rain Light Rain
8:38 PM 36.0 °F 28.0 °F 33.1 °F 89% 29.87 in 6.0 mi West 11.5 mph - 0.05 in Rain Rain
8:53 PM 36.0 °F 27.5 °F 33.1 °F 89% 29.86 in 6.0 mi West 12.7 mph - 0.07 in Rain Rain
9:41 PM 33.1 °F 25.5 °F 32.0 °F 96% 29.89 in 2.5 mi West 9.2 mph - 0.08 in Snow Light Snow
10:07 PM 33.1 °F 26.9 °F 32.0 °F 96% 29.90 in 4.0 mi West 6.9 mph - 0.01 in Snow Light Snow
10:16 PM 33.1 °F 26.9 °F 32.0 °F 96% 29.90 in 4.0 mi West 6.9 mph - 0.02 in Snow Light Snow
10:40 PM 33.1 °F - 32.0 °F 96% 29.91 in 2.5 mi Calm Calm - 0.03 in Snow Light Snow
10:50 PM 33.8 °F - 32.0 °F 93% 29.92 in 1.5 mi Calm Calm - 0.04 in Snow Light Snow
10:53 PM 33.1 °F - 32.0 °F 96% 29.89 in 1.5 mi Calm Calm - 0.05 in Snow Light Snow
11:25 PM 33.1 °F 26.1 °F 32.0 °F 96% 29.92 in 2.5 mi West 8.1 mph - 0.03 in Snow Light Snow
11:43 PM 33.1 °F 26.1 °F 30.9 °F 92% 29.93 in 1.8 mi West 8.1 mph - 0.04 in Snow Light Snow
11:53 PM 33.1 °F 25.5 °F 30.9 °F 92% 29.91 in 2.0 mi West 9.2 mph - 0.05 in Snow Light Snow